Weather History for Rouyn Airport, QC

Change the Weather History Date:

Sunday, January 29, 2012

  Actual Average (CYVO) Record (CYVO)
Temperature  
Mean Temperature 10 °F -  
Max Temperature 21 °F 12 °F 33 °F (2008)
Min Temperature 0 °F -4 °F -38 °F (1997)
Degree Days  
Heating Degree Days 54    
Moisture  
Dew Point 6 °F    
Average Humidity 77    
Maximum Humidity 86    
Minimum Humidity 62    
Precipitation  
Precipitation 0.00 in - - ()
Sea Level Pressure  
Sea Level Pressure 29.77 in    
Wind  
Wind Speed 8 mph ()    
Max Wind Speed 15 mph    
Max Gust Speed 20 mph    
Visibility 9.2 miles    
Events Snow    
Averages and records for this station are not official NWS values.
T = Trace of Precipitation, MM = Missing Value Source: Averaged Metar Reports

Daily Weather History Graph

Daily Weather History Graph

Search for Another Location

Airport:

Trip Planner

Search our weather history database for the weather conditions in past years. The results will help you decide how hot, cold, wet, or windy it might be!

Date:

Astronomy

Jan. 29, 2012 Rise Set
Actual Time 8:48 AM AST 6:09 PM AST
Civil Twilight 8:14 AM AST 6:43 PM AST
Nautical Twilight 7:36 AM AST 7:20 PM AST
Astronomical Twilight 6:59 AM AST 7:57 PM AST
Moon 11:02 AM AST (1/29) 12:28 AM AST (1/29)
Length of Visible Light 10h 28m
Length of Day
9h 21m
Waxing Crescent, 36% of the Moon is Illuminated
Jan 29
Waxing Crescent
Jan 31
First Quarter
Feb 7
Full
Feb 14
Last Quarter
Feb 21
New

Hourly Weather History & Observations

Time (AST) Temp. Windchill Dew Point Humidity Pressure Visibility Wind Dir Wind Speed Gust Speed Precip Events Conditions
12:00 AM 21.2 °F 12.6 °F 17.6 °F 86% 29.58 in 15.0 mi WNW 6.9 mph - N/A Snow Light Snow
1:00 AM 21.2 °F 12.6 °F 17.6 °F 86% 29.60 in 15.0 mi West 6.9 mph - N/A   Overcast
2:00 AM 21.2 °F 11.7 °F 17.6 °F 86% 29.60 in 15.0 mi WSW 8.1 mph - N/A Snow Light Snow
3:00 AM 21.2 °F 8.3 °F 17.6 °F 86% 29.62 in 15.0 mi WSW 13.8 mph - N/A Snow Light Snow
4:00 AM 19.4 °F 6.6 °F 14.0 °F 80% 29.64 in 15.0 mi WSW 12.7 mph 19.6 mph N/A Snow Light Snow
5:00 AM 17.6 °F 3.7 °F 14.0 °F 86% 29.67 in 15.0 mi WSW 13.8 mph - N/A Snow Light Snow
6:00 AM 17.6 °F 6.4 °F 12.2 °F 79% 29.68 in 15.0 mi West 9.2 mph - N/A Snow Light Snow
7:00 AM 14.0 °F 2.0 °F 10.4 °F 86% 29.71 in 4.0 mi West 9.2 mph - N/A Snow Light Snow
8:00 AM 12.2 °F 0.7 °F 8.6 °F 85% 29.73 in 5.0 mi West 8.1 mph - N/A Snow Light Snow
9:00 AM 10.4 °F -0.4 °F 6.8 °F 85% 29.75 in 5.0 mi West 6.9 mph - N/A Snow Light Snow
10:00 AM 12.2 °F -0.2 °F 6.8 °F 79% 29.77 in 4.0 mi West 9.2 mph - N/A Snow Light Snow
11:00 AM 10.4 °F -0.4 °F 5.0 °F 79% 29.78 in 5.0 mi West 6.9 mph - N/A Snow Light Snow
11:35 AM - - - N/A% - 1.2 mi West 13.8 mph - N/A   Unknown
11:48 AM - - - N/A% - 5.0 mi West 13.8 mph 19.6 mph N/A   Unknown
12:00 PM 12.2 °F 0.7 °F 1.4 °F 62% 29.80 in 3.0 mi West 8.1 mph - N/A Snow Light Snow
1:00 PM 10.4 °F -1.5 °F 1.4 °F 67% 29.80 in 3.0 mi NW 8.1 mph - N/A Snow Light Snow
2:00 PM 10.4 °F -6.0 °F 1.4 °F 67% 29.80 in 1.5 mi West 15.0 mph - N/A Snow Light Snow
2:28 PM - - - N/A% - 3.0 mi WNW 8.1 mph - N/A   Unknown
3:00 PM 10.4 °F -3.3 °F 3.2 °F 73% 29.81 in 3.0 mi West 10.4 mph - N/A Snow Light Snow
4:00 PM 10.4 °F -3.3 °F 1.4 °F 67% 29.82 in 3.0 mi WNW 10.4 mph - N/A Snow Light Snow
5:00 PM 8.6 °F -6.3 °F -0.4 °F 67% 29.84 in 8.0 mi West 11.5 mph - N/A Snow Light Snow
6:00 PM 8.6 °F -4.7 °F -0.4 °F 67% 29.87 in 15.0 mi West 9.2 mph - N/A Snow Light Snow
7:00 PM 8.6 °F -3.7 °F -0.4 °F 67% 29.89 in 15.0 mi West 8.1 mph - N/A Snow Light Snow
8:00 PM 6.8 °F -3.5 °F -2.2 °F 67% 29.91 in 15.0 mi West 5.8 mph - N/A   Partly Cloudy
9:00 PM 1.4 °F -9.9 °F -4.0 °F 78% 29.94 in 15.0 mi West 5.8 mph - N/A   Partly Cloudy
10:00 PM -0.4 °F -8.3 °F -4.0 °F 85% 29.96 in 15.0 mi WSW 3.5 mph - N/A   Scattered Clouds
11:00 PM 1.4 °F -8.3 °F -4.0 °F 78% 29.98 in 15.0 mi West 4.6 mph - N/A   Scattered Clouds